TimeEST,TemperatureF,Dew PointF,Humidity,Sea Level PressureIn,VisibilityMPH,Wind Direction,Wind SpeedMPH,Gust SpeedMPH,PrecipitationIn,Events,Conditions,WindDirDegrees,DateUTC
12:53 AM,35.1,25.0,67,30.03,10.0,Calm,Calm,-,N/A,,Mostly Cloudy,0,2013-01-18 05:53:00
1:53 AM,35.1,24.1,64,30.06,10.0,Calm,Calm,-,N/A,,Partly Cloudy,0,2013-01-18 06:53:00
2:53 AM,34.0,25.0,70,30.06,10.0,Calm,Calm,-,N/A,,Overcast,0,2013-01-18 07:53:00
3:53 AM,34.0,25.0,70,30.07,10.0,North,5.8,-,0.00,,Scattered Clouds,360,2013-01-18 08:53:00
4:53 AM,33.1,24.1,70,30.10,10.0,NNE,5.8,-,N/A,,Overcast,20,2013-01-18 09:53:00
5:53 AM,33.1,21.9,64,30.16,10.0,NNE,16.1,20.7,N/A,,Overcast,20,2013-01-18 10:53:00
6:53 AM,30.0,16.0,56,30.24,10.0,North,18.4,27.6,N/A,,Mostly Cloudy,10,2013-01-18 11:53:00
7:53 AM,28.0,10.0,47,30.30,10.0,North,16.1,23.0,N/A,,Clear,360,2013-01-18 12:53:00
8:53 AM,28.0,7.0,41,30.37,10.0,NNW,13.8,21.9,N/A,,Clear,340,2013-01-18 13:53:00
9:53 AM,28.0,5.0,38,30.42,10.0,North,17.3,27.6,N/A,,Clear,360,2013-01-18 14:53:00
10:53 AM,27.0,8.1,45,30.43,10.0,North,16.1,24.2,N/A,,Partly Cloudy,10,2013-01-18 15:53:00
11:53 AM,30.0,8.1,40,30.43,10.0,North,16.1,19.6,N/A,,Clear,360,2013-01-18 16:53:00
12:53 PM,30.0,8.1,40,30.41,10.0,NNW,8.1,17.3,N/A,,Clear,340,2013-01-18 17:53:00
1:53 PM,30.0,6.1,36,30.42,10.0,NNE,8.1,18.4,N/A,,Clear,20,2013-01-18 18:53:00
2:53 PM,30.0,5.0,35,30.43,10.0,NNW,3.5,-,N/A,,Clear,340,2013-01-18 19:53:00
3:53 PM,30.0,5.0,35,30.44,10.0,NNW,6.9,-,N/A,,Clear,330,2013-01-18 20:53:00
4:53 PM,28.9,6.1,38,30.45,10.0,NW,5.8,-,N/A,,Clear,310,2013-01-18 21:53:00
5:53 PM,28.9,7.0,40,30.46,10.0,Calm,Calm,-,N/A,,Clear,0,2013-01-18 22:53:00
6:53 PM,28.0,8.1,43,30.48,10.0,Calm,Calm,-,N/A,,Clear,0,2013-01-18 23:53:00
7:53 PM,27.0,10.9,51,30.47,10.0,Calm,Calm,-,N/A,,Clear,0,2013-01-19 00:53:00
8:53 PM,25.0,12.0,58,30.45,10.0,SSW,4.6,-,N/A,,Clear,210,2013-01-19 01:53:00
10:53 PM,26.1,14.0,60,30.42,10.0,South,8.1,-,N/A,,Clear,190,2013-01-19 03:53:00
11:53 PM,26.1,14.0,60,30.40,10.0,SW,8.1,-,N/A,,Clear,220,2013-01-19 04:53:00